Theta_e
354 355 354 354 357 357 351 343 319 326 324 315 317 322 320 329 331 330 330 335 329 335 337 337 336 336 339 331 331 332 335 326 330 315 313 335 348 350 352 352 354 355 355 356 357 359 361 364 366 367 367 368 367 367 367 366 366 366 367 367 366 366 366 366 366 366 365 365 366 365 366 365 365 365 364 364 363 363 363 364 364 364 364 363 363 363 363 363 363 363 362 361 361 361 361 361 362
353 352 352 354 354 348 333 342 323 320 322 316 318 324 324 330 331 328 329 331 332 330 337 336 337 339 338 336 336 335 332 336 338 336 340 345 350 351 353 353 354 354 355 356 358 358 359 363 366 367 367 367 367 367 367 366 366 366 367 366 366 366 366 366 366 366 365 366 365 365 365 365 364 365 364 363 363 363 363 363 364 364 364 363 363 363 363 363 363 363 362 362 362 362 361 362 362
352 349 350 356 354 345 341 338 317 318 314 310 316 320 332 326 327 329 334 335 337 337 335 335 337 337 335 335 331 330 323 339 339 341 339 347 343 345 351 353 354 355 356 357 359 359 359 362 365 367 366 366 366 367 368 366 366 367 367 367 366 366 365 366 366 366 366 365 365 364 364 365 364 363 364 364 364 363 363 363 362 362 363 363 363 362 362 363 363 362 362 362 361 361 362 362 362
351 353 354 355 336 345 330 328 322 317 312 315 315 327 326 327 327 330 335 334 337 336 334 333 330 338 334 328 329 334 331 334 340 340 338 343 344 348 351 353 357 357 357 358 359 360 361 364 366 367 366 366 367 367 367 367 367 367 367 367 366 366 366 366 366 365 365 365 365 365 365 365 364 364 364 364 363 364 364 364 363 362 363 363 363 363 362 363 362 363 362 362 362 362 362 362 362
357 361 356 348 339 327 327 324 323 322 313 319 315 323 328 331 329 331 333 337 338 336 334 334 331 336 337 334 336 329 330 339 340 344 343 346 350 350 351 354 356 356 356 359 361 361 362 365 367 368 366 367 368 367 367 367 367 367 367 367 366 366 366 366 365 364 365 364 364 364 363 363 363 362 363 363 362 362 363 363 363 363 362 363 363 363 363 363 363 363 362 362 361 362 362 362 362
358 356 358 349 333 343 333 321 321 319 323 329 321 324 328 333 332 332 333 335 335 335 335 334 331 331 331 335 338 331 338 331 341 343 345 345 350 352 353 355 354 354 357 359 361 360 362 366 368 368 368 368 368 367 367 367 367 367 367 366 366 366 365 365 365 364 364 363 363 363 363 363 363 363 363 363 363 363 362 363 363 363 363 363 363 363 363 363 363 363 363 361 362 362 362 362 361
351 348 348 345 339 341 322 320 319 322 325 330 326 330 332 334 333 334 332 333 337 335 336 332 335 334 330 336 339 342 346 344 342 343 347 349 352 353 354 353 352 354 358 359 360 361 362 367 367 367 368 368 368 368 367 367 367 367 367 366 366 366 365 365 364 364 363 363 363 364 363 364 364 363 363 363 363 363 363 362 363 362 362 363 362 363 363 363 363 363 362 362 362 362 362 362 362
359 344 341 329 326 330 321 322 321 329 326 329 333 334 334 335 335 335 331 329 328 329 333 335 335 332 330 341 329 342 346 348 346 348 349 350 352 353 353 352 352 354 357 360 361 362 366 367 368 367 368 369 367 368 368 368 368 367 367 366 366 366 365 365 364 364 364 364 364 364 364 364 363 363 363 363 363 363 363 364 364 364 362 362 361 362 362 362 362 362 362 361 362 363 362 361 362
352 348 347 332 321 327 320 320 322 327 325 330 331 337 338 338 336 335 331 332 333 333 332 333 334 328 330 334 333 341 344 347 348 350 349 350 351 352 352 353 352 354 358 360 361 363 364 368 368 368 369 368 368 368 369 368 367 367 366 366 367 366 365 366 364 364 364 364 364 364 363 364 363 363 362 363 363 363 364 363 364 363 363 363 363 362 362 362 362 361 361 361 361 362 362 362 361
347 343 328 326 327 316 318 319 322 323 326 332 333 334 334 335 334 336 330 331 331 332 334 337 336 330 334 331 334 340 341 347 347 347 349 350 351 352 352 354 354 356 359 360 361 363 364 369 368 368 369 368 367 368 369 368 367 367 367 367 366 366 366 365 365 365 365 365 364 364 364 364 363 363 362 362 363 363 363 363 363 364 363 363 363 363 363 362 362 362 362 361 361 362 362 362 361
333 342 342 324 317 313 315 316 321 330 325 335 335 338 336 336 335 333 332 331 334 332 335 337 333 333 334 334 336 345 347 346 345 344 349 351 352 353 352 354 356 358 359 360 361 362 364 365 368 368 368 368 368 368 369 368 367 367 367 367 366 366 366 366 366 365 366 366 365 364 364 364 364 363 363 363 363 363 363 363 364 364 364 364 364 363 363 363 362 362 362 361 361 361 362 363 361
329 331 332 318 317 317 320 318 321 329 329 330 330 335 336 335 338 330 331 330 332 332 332 337 331 338 332 333 334 342 345 345 345 347 350 351 351 353 353 355 357 359 360 360 361 362 363 364 365 368 368 368 367 368 369 369 368 368 368 368 368 368 367 367 366 365 365 365 365 365 364 364 364 363 363 363 363 363 363 364 364 364 364 364 363 363 363 363 363 362 362 362 362 362 362 363 362
330 333 327 320 319 320 322 320 320 323 325 329 330 333 338 335 335 332 332 332 332 331 332 339 339 338 329 332 339 343 342 345 348 349 350 350 351 352 354 355 358 358 359 361 360 362 362 361 364 364 366 368 368 368 368 368 369 369 369 369 369 369 368 366 366 365 364 364 364 364 364 365 364 364 364 363 364 363 363 364 365 365 365 364 363 363 364 364 363 363 363 363 363 363 363 362 362
331 334 331 320 326 321 320 323 322 319 324 329 332 335 336 333 334 335 334 331 331 332 337 340 339 338 333 335 336 337 341 347 348 349 350 351 351 352 353 355 356 356 359 360 359 361 360 361 363 363 364 363 362 365 367 368 368 368 369 369 369 369 368 367 366 366 365 364 364 363 364 365 365 365 365 366 366 365 364 364 364 365 365 365 364 364 364 364 363 363 363 363 363 363 363 363 363
332 335 329 326 322 321 324 316 319 319 317 328 332 335 334 335 336 336 334 330 333 339 341 344 340 335 327 331 331 337 342 346 348 349 350 351 351 352 353 353 354 356 357 358 360 360 359 361 362 362 363 362 362 361 363 365 368 369 369 369 369 369 368 368 366 365 365 364 363 363 363 364 365 365 366 366 366 365 365 364 364 364 364 364 364 364 364 364 364 364 363 363 363 363 362 362 362
334 333 328 320 317 318 319 319 323 321 319 324 329 333 332 334 338 334 335 337 335 341 341 334 342 335 336 335 336 341 345 347 348 348 349 350 350 351 351 351 352 354 356 357 358 359 359 359 361 361 361 362 362 362 363 363 367 368 369 369 370 369 368 367 366 365 364 364 364 363 363 363 363 364 366 365 366 366 364 363 364 364 364 364 364 364 364 364 364 364 364 363 363 363 363 362 362
336 333 320 321 314 317 319 317 320 316 325 327 333 332 328 327 338 338 341 340 334 335 338 338 336 342 337 338 342 344 345 347 348 346 347 347 348 347 349 349 351 352 355 356 357 357 358 358 359 359 360 361 361 362 363 364 366 368 368 369 370 369 368 367 365 365 364 363 363 363 362 360 360 361 362 362 366 365 364 364 365 364 363 364 364 363 364 364 364 364 363 362 363 362 362 363 363
336 323 319 315 317 317 322 322 322 325 322 326 327 330 327 330 332 335 338 336 335 336 336 338 340 340 341 343 346 346 347 346 346 343 344 345 346 345 344 346 348 348 351 353 355 356 356 357 357 358 359 359 359 362 364 365 366 366 364 365 366 366 367 366 364 362 365 360 363 362 360 363 362 358 362 366 365 364 364 364 364 365 364 363 364 364 364 364 363 363 362 363 363 364 363 360 363
325 322 321 316 320 322 326 327 329 326 326 328 329 330 329 328 333 335 332 331 332 331 333 335 335 338 341 343 344 344 345 344 344 345 344 343 344 343 343 345 346 348 349 351 353 354 355 357 357 357 358 357 359 361 363 364 364 363 363 364 365 367 366 366 362 364 360 360 361 360 365 364 364 365 362 366 367 366 366 365 364 364 364 363 362 362 363 363 362 361 361 363 363 363 362 357 356
329 321 318 320 325 326 335 329 328 332 332 329 327 329 328 329 331 334 330 329 332 329 330 332 333 333 336 339 342 342 343 343 344 343 343 343 344 344 344 344 345 347 349 350 351 354 355 355 356 356 355 355 357 358 361 362 362 362 362 362 362 362 362 363 360 360 360 360 362 362 363 363 363 364 366 365 365 364 364 365 365 364 363 363 363 363 362 362 362 361 360 362 365 364 357 355 354
328 323 317 321 326 323 326 329 330 330 336 332 329 330 327 326 331 331 330 327 328 331 335 333 333 334 336 338 339 341 342 342 343 343 342 342 344 345 345 345 345 347 349 351 351 352 354 355 355 355 355 355 354 355 359 360 360 360 360 360 360 360 360 360 359 361 362 360 361 363 363 362 361 359 362 361 358 361 360 360 361 360 359 358 364 358 360 361 361 359 361 363 358 361 356 352 350
326 323 324 324 328 324 336 335 340 330 332 331 330 328 325 333 331 329 330 325 325 332 335 337 338 338 338 338 339 340 342 342 342 342 342 342 342 343 345 345 346 347 348 348 349 352 353 354 355 354 354 354 353 354 356 358 359 357 357 358 358 359 359 357 358 361 362 361 361 362 360 358 360 360 360 360 362 361 361 360 361 360 361 362 365 357 359 358 357 357 359 357 358 359 355 356 354
317 324 326 325 329 328 335 329 329 330 330 329 328 330 330 329 329 330 331 328 330 339 339 340 340 340 340 341 340 339 340 341 341 342 342 342 343 344 345 345 345 344 346 347 349 351 352 353 354 354 353 353 353 355 355 356 356 356 356 356 355 356 357 355 358 359 361 364 362 362 358 355 356 357 358 359 361 361 360 358 360 360 358 359 363 357 357 358 358 356 356 360 359 355 354 355 356
322 318 325 326 331 327 333 328 329 329 329 329 332 332 327 328 326 332 330 332 334 337 341 341 342 341 341 338 338 338 338 340 341 341 343 343 343 344 345 345 346 346 345 346 348 350 352 352 353 352 352 352 352 354 353 352 354 353 354 359 356 356 356 353 357 357 360 364 363 361 361 355 356 357 358 359 359 360 359 360 359 356 357 359 359 358 357 356 355 356 356 357 358 355 353 354 353
320 320 324 326 330 329 332 330 330 330 330 333 331 327 327 328 328 330 327 332 334 338 342 342 341 341 340 337 336 337 339 339 340 341 343 344 344 345 346 347 347 347 345 346 348 349 350 352 353 351 352 352 351 353 352 351 351 351 353 353 353 359 354 354 357 359 359 362 361 360 360 354 356 354 357 359 358 359 359 359 358 358 359 359 358 356 357 357 355 355 355 358 356 359 356 354 356
322 322 325 325 327 328 330 329 330 330 329 330 327 326 329 328 331 326 329 332 335 338 340 341 340 340 339 338 338 338 338 339 341 340 341 343 345 345 346 346 347 347 347 348 348 348 349 351 351 350 351 351 351 352 351 350 349 349 351 351 353 360 353 357 359 358 359 360 360 361 359 354 353 351 353 358 358 357 357 361 360 358 357 359 357 354 356 356 355 355 355 358 358 356 354 354 358
324 323 324 324 325 326 329 328 328 329 328 329 326 327 326 328 326 318 329 333 336 338 338 339 338 338 338 338 339 340 339 340 341 342 342 342 343 344 345 347 347 348 349 348 350 350 350 351 350 351 351 353 353 350 352 351 350 351 352 352 353 355 356 359 358 357 360 360 361 363 358 355 353 351 354 359 359 357 357 357 358 361 358 357 357 355 357 355 354 355 356 358 357 354 355 357 355
321 322 324 323 324 325 328 328 328 327 326 328 328 326 327 328 326 321 328 334 336 335 336 337 337 336 337 338 339 340 340 341 342 341 340 340 341 343 343 345 347 349 349 349 351 352 352 350 350 351 352 353 354 351 355 353 350 352 354 353 353 356 358 356 356 356 360 358 361 362 361 358 359 357 359 359 359 357 356 356 358 357 358 358 359 357 358 361 358 357 361 361 358 355 354 354 358
319 320 316 320 323 321 325 326 327 327 325 329 330 325 321 323 320 326 331 334 335 334 334 336 337 337 337 337 339 339 339 341 342 341 340 342 342 345 344 346 348 348 350 350 352 353 353 351 351 353 354 356 354 352 354 355 354 354 354 354 354 358 357 354 354 356 358 360 362 361 363 361 360 358 360 359 364 358 357 357 357 360 359 358 356 356 356 355 356 358 362 361 358 352 351 351 354
320 318 315 316 318 317 322 325 327 326 327 330 328 310 314 320 324 328 330 333 333 332 331 333 335 337 337 338 338 339 340 341 340 340 341 342 343 344 345 346 349 350 349 351 352 352 354 354 356 355 355 356 355 354 355 354 354 354 355 355 358 357 355 355 355 356 360 361 361 363 362 363 361 364 363 360 360 359 360 358 358 360 359 358 358 356 355 355 353 356 356 356 360 352 352 351 355
312 315 316 310 309 310 321 323 323 321 327 326 327 311 312 320 324 329 330 333 331 329 330 332 333 335 336 337 338 338 339 340 341 342 342 344 344 345 346 347 348 350 350 351 352 352 354 354 356 354 356 355 356 354 355 353 354 354 355 355 357 357 354 355 357 357 358 360 362 363 362 363 363 364 364 360 359 360 359 360 361 362 362 362 360 362 356 360 360 359 360 358 357 355 351 351 351
312 308 306 310 308 312 319 323 323 318 322 326 324 312 314 318 322 326 330 330 331 329 329 330 331 334 335 336 337 338 339 341 342 342 343 344 344 344 345 346 349 349 349 352 352 352 353 353 355 354 354 355 355 354 354 355 354 354 355 361 357 357 354 354 354 357 358 360 362 362 362 363 361 364 363 362 358 358 357 359 359 363 365 363 363 364 363 359 358 359 360 356 352 354 354 349 358
309 308 307 306 310 311 315 320 323 323 322 323 321 313 317 318 322 327 329 329 331 329 328 329 330 333 334 336 337 338 339 339 341 341 342 344 345 345 345 346 348 349 351 352 352 351 351 352 354 354 355 356 355 355 354 355 354 354 355 357 358 357 356 354 355 356 358 360 361 362 362 364 361 363 363 364 360 359 360 360 360 362 368 362 361 362 362 361 357 359 358 362 355 353 355 350 350
303 308 305 310 309 312 310 317 321 322 321 317 321 317 317 319 321 325 328 329 329 328 328 329 332 332 334 337 338 337 338 338 338 340 341 344 344 345 346 349 348 350 351 352 353 352 351 352 352 354 355 356 355 355 353 356 354 356 355 355 359 356 356 355 355 354 356 358 360 361 362 363 362 362 363 363 360 360 360 359 361 364 364 363 361 361 359 361 357 358 356 359 362 357 354 348 343
302 303 304 306 310 313 312 311 316 320 320 317 318 317 317 319 321 324 325 329 328 328 329 330 331 332 332 337 337 337 337 337 339 340 342 344 344 345 346 347 347 350 351 351 352 352 352 352 353 355 355 355 355 355 353 356 356 356 355 355 356 355 355 353 354 353 353 356 358 360 363 362 363 362 364 363 360 361 357 359 361 365 364 363 362 358 358 359 359 355 354 356 360 358 355 349 342
307 308 306 307 306 308 310 315 319 318 317 315 315 314 316 318 319 321 325 329 328 329 330 330 331 331 331 334 336 337 337 338 340 341 343 344 344 345 345 347 347 349 351 351 352 352 351 351 351 353 354 355 355 356 355 354 355 354 352 352 354 353 353 356 354 352 353 353 358 361 362 361 362 362 362 363 359 360 357 358 360 362 361 360 359 357 355 356 356 355 354 355 352 357 357 351 346
310 311 310 307 307 309 314 315 318 319 317 314 315 316 316 317 319 321 324 328 328 328 328 328 329 329 330 333 335 336 337 338 341 342 342 343 344 345 345 346 347 349 350 351 351 351 350 350 351 351 354 355 354 355 353 352 352 351 350 350 351 352 352 354 357 352 353 352 359 360 361 362 362 362 363 362 360 365 359 357 358 361 359 359 358 359 358 357 358 357 359 357 354 351 348 348 341
308 308 308 307 309 306 312 313 317 319 316 313 315 315 315 317 320 322 325 326 325 326 326 326 327 328 330 331 333 335 337 341 341 340 341 343 343 344 345 345 348 346 348 349 350 351 351 351 350 352 353 354 354 355 353 353 353 352 350 350 350 352 353 352 352 353 351 356 361 361 362 362 362 362 363 362 362 361 360 357 358 361 357 356 358 361 355 362 359 357 357 353 356 353 346 345 342
308 306 306 305 305 310 313 314 315 316 315 310 315 312 313 316 319 322 323 324 325 327 327 327 327 328 329 331 334 335 338 338 339 340 340 341 342 343 344 345 345 347 348 349 351 351 351 350 350 353 353 353 354 355 354 352 353 354 353 352 351 351 355 355 353 355 356 355 360 361 362 362 362 362 363 364 361 362 360 360 361 362 359 361 358 356 356 356 357 356 355 354 352 354 355 346 341
307 307 305 302 306 305 301 310 312 314 313 310 313 312 312 316 318 320 323 324 324 327 328 328 329 328 330 333 336 336 337 337 337 338 339 339 341 342 343 343 344 346 347 349 350 350 351 351 350 353 353 354 354 355 356 354 355 355 355 354 353 353 352 354 354 355 355 356 359 361 361 362 362 362 363 363 363 362 360 362 364 364 361 363 361 358 358 358 359 358 356 357 352 345 343 342 348
307 309 307 305 306 307 306 305 311 313 315 315 314 311 309 312 313 316 321 326 326 326 328 328 329 330 333 335 337 338 337 337 337 338 339 339 339 341 342 343 343 345 346 348 350 350 351 351 351 353 353 353 354 356 355 354 355 354 355 355 355 354 354 352 350 350 351 355 358 358 360 362 362 362 362 362 362 361 362 363 363 364 363 362 363 359 356 358 360 358 357 355 349 346 342 336 345
306 309 309 309 309 307 308 308 308 305 305 313 312 302 302 309 313 315 319 321 323 325 324 325 328 331 333 334 336 338 339 339 338 338 338 339 339 340 342 343 342 345 346 348 350 350 350 351 351 353 353 353 353 354 354 354 353 352 351 350 347 348 347 347 346 347 347 350 354 358 360 362 361 361 361 362 362 362 363 364 363 364 361 363 362 359 359 359 358 358 358 354 351 350 344 332 334
303 305 311 310 310 310 308 306 305 299 299 309 315 302 298 307 310 313 316 319 319 325 324 325 327 331 332 334 335 336 337 339 339 339 339 339 339 339 341 342 343 344 345 348 349 349 349 351 351 352 353 352 353 353 353 354 352 352 351 350 348 346 346 347 349 351 349 350 350 356 359 360 360 360 361 361 361 362 364 363 364 364 364 363 363 360 358 359 359 358 358 354 353 355 348 332 334
302 310 311 310 309 308 308 307 304 302 310 312 312 307 299 299 308 313 314 314 316 320 322 324 327 329 331 333 335 335 337 339 339 339 340 340 340 340 341 342 344 345 346 348 348 348 348 351 351 351 353 353 353 353 353 353 351 351 350 350 349 346 349 347 349 350 351 352 349 353 357 358 360 359 360 361 361 362 366 363 365 365 365 365 364 361 359 360 358 359 358 356 355 354 348 338 333
305 311 312 310 309 309 309 307 303 302 302 298 307 310 300 299 306 313 314 311 312 315 321 324 326 329 331 334 335 335 337 340 341 340 340 340 340 341 342 343 345 346 347 347 347 348 348 352 352 351 353 352 353 353 353 352 353 352 351 350 349 349 350 351 352 351 352 354 348 349 355 356 359 359 360 360 361 361 366 366 366 365 364 364 364 361 360 360 359 357 357 356 354 351 351 348 339
309 312 314 313 311 310 308 305 302 301 298 295 304 308 300 298 305 308 311 311 310 314 322 324 327 328 331 334 335 335 337 339 341 341 341 341 341 342 344 345 345 346 348 349 348 350 349 351 352 351 352 353 353 353 353 352 353 353 351 349 349 349 350 352 352 350 351 354 348 349 354 356 358 359 359 359 360 361 365 366 366 365 364 364 364 362 362 360 362 360 357 356 356 350 352 353 345
313 312 310 309 307 306 306 304 301 299 294 294 302 305 305 296 303 306 307 309 312 313 322 325 328 330 332 335 335 335 336 339 340 341 341 341 342 343 344 344 345 346 349 350 349 350 350 351 352 350 351 353 354 353 352 351 352 352 351 350 350 350 350 350 350 350 350 352 349 348 354 355 357 358 358 359 360 360 365 365 365 366 365 365 363 362 362 361 361 360 360 359 356 353 352 350 351
311 308 306 302 300 302 300 299 300 292 290 297 302 302 303 295 299 308 312 314 316 315 316 324 326 329 332 334 335 335 336 338 340 340 340 341 341 342 344 344 345 346 348 349 349 351 351 351 353 350 351 353 354 353 352 352 352 352 352 351 350 351 351 350 350 350 350 350 353 350 352 355 356 357 357 357 359 360 363 364 364 366 366 362 362 362 363 361 362 360 359 358 356 356 354 353 348
309 306 303 297 292 293 290 293 291 291 289 297 302 302 298 297 301 307 312 313 315 316 317 324 327 329 331 333 334 335 335 337 338 339 340 340 340 341 342 344 345 346 347 349 350 351 352 352 352 351 350 352 353 355 352 352 352 352 352 352 352 353 353 351 351 352 352 351 352 353 350 354 355 355 356 355 357 358 360 362 363 364 364 363 363 362 362 361 362 360 359 359 357 356 354 353 348
306 303 299 295 289 288 283 287 292 291 296 300 299 302 297 302 303 308 308 311 313 317 318 319 329 329 331 332 333 334 335 337 338 339 340 340 341 341 342 343 345 346 347 350 351 351 352 352 352 351 351 352 353 355 353 352 352 353 353 354 354 355 354 352 352 353 354 353 353 353 354 353 355 355 356 356 357 358 359 362 363 363 364 364 363 363 362 361 361 360 359 358 357 357 355 353 352
305 307 302 298 295 292 286 288 287 289 290 295 301 295 293 295 297 309 310 312 312 315 319 318 321 330 332 332 333 334 336 337 338 339 340 341 341 341 341 344 345 346 347 350 351 351 352 352 352 352 351 352 353 354 354 352 352 354 354 355 355 355 355 354 353 354 355 354 355 353 354 354 356 356 357 358 359 358 358 360 362 361 363 363 363 363 364 362 361 360 359 358 358 358 356 353 353
306 307 305 299 297 300 290 295 294 294 294 294 294 294 298 298 308 311 312 312 313 314 316 319 318 326 329 331 331 333 336 337 338 339 340 341 342 341 342 344 346 347 348 349 351 352 352 352 352 352 352 353 353 354 354 354 353 354 355 355 355 355 356 355 354 354 355 357 356 355 354 356 356 358 359 359 359 358 357 360 361 361 362 363 363 364 363 362 362 361 359 358 356 360 357 354 354
302 304 299 301 305 302 300 304 302 304 298 292 302 298 299 303 304 307 310 310 311 313 313 315 319 323 326 328 330 332 335 336 337 338 339 340 341 342 342 345 346 347 347 348 349 351 352 353 353 352 352 353 353 354 354 355 354 353 355 355 356 355 355 354 353 353 354 357 357 356 355 356 358 358 359 361 359 357 357 360 360 361 361 362 363 363 364 362 362 361 360 358 356 359 358 355 354
303 299 302 307 308 306 301 293 295 293 289 292 298 295 294 296 293 305 305 307 309 311 312 313 318 322 325 327 330 331 333 335 337 338 339 341 342 342 342 345 347 347 347 347 348 351 353 355 354 353 353 353 354 354 354 355 354 353 354 355 356 356 356 356 355 354 353 353 357 358 357 357 358 360 360 361 360 358 357 362 360 360 360 361 363 363 363 362 362 360 360 360 358 358 357 356 355
306 303 310 302 294 294 298 300 290 289 289 290 295 298 297 297 298 302 303 304 306 308 311 312 314 321 325 328 330 330 332 333 335 337 338 340 341 343 343 344 347 348 348 348 349 352 354 356 356 355 354 354 355 355 355 356 356 355 355 355 356 356 357 357 356 355 353 352 353 357 358 359 359 360 360 359 359 358 358 358 359 360 360 360 361 363 363 362 362 360 360 360 359 357 356 355 355
312 310 306 308 302 297 294 297 299 297 291 292 292 296 292 301 301 304 304 306 307 307 309 311 312 321 324 328 329 330 331 332 335 336 337 338 341 343 343 344 345 347 348 348 349 352 354 356 357 356 356 356 356 356 356 355 356 356 355 356 356 357 357 357 356 355 353 352 352 354 358 360 360 361 361 360 359 359 358 358 359 359 359 360 359 361 363 362 362 360 360 359 360 358 356 354 355
304 304 301 303 302 304 302 302 297 295 294 291 292 291 298 304 308 307 306 307 308 309 309 311 312 323 325 328 329 331 331 333 335 336 337 338 339 342 343 344 346 347 349 349 350 352 354 356 357 358 356 356 355 356 357 356 356 356 356 354 355 356 356 357 356 355 354 353 352 352 355 359 361 360 359 359 359 358 358 358 359 359 359 360 359 359 362 362 361 360 360 359 359 358 357 355 354
305 303 301 301 299 296 294 291 302 299 295 289 294 292 301 307 313 310 309 310 310 311 311 312 313 323 325 327 327 331 331 333 335 336 337 337 339 341 342 343 345 346 348 348 349 352 354 355 357 358 358 357 356 356 357 357 357 357 356 355 355 355 356 356 356 355 354 353 352 352 353 356 358 361 359 358 359 359 359 358 358 358 359 360 360 360 361 362 361 360 359 360 359 358 357 356 355
Wind_Speed
11 9 8 7 3 1 0 2 2 1 1 3 3 0 1 3 3 1 0 4 1 6 12 10 14 7 1 7 13 11 13 6 2 6 5 4 11 14 10 13 12 11 10 8 6 6 6 7 16 17 18 18 18 18 18 17 17 17 17 17 17 17 17 17 18 18 17 17 17 17 17 17 17 16 16 16 16 16 16 15 15 14 14 13 13 12 12 12 12 11 10 11 11 12 12 12 12
8 8 8 6 4 2 2 1 1 0 2 4 5 3 2 3 3 1 2 5 4 1 6 11 10 13 13 13 8 11 13 10 5 8 7 12 15 10 12 14 13 13 10 8 7 6 5 7 14 17 18 19 18 18 18 17 17 17 17 17 17 17 17 17 17 17 17 17 17 17 16 16 16 16 16 16 16 16 15 15 14 13 13 13 12 12 12 12 11 11 10 10 11 11 12 12 11
8 7 5 6 2 1 1 1 2 0 2 3 1 4 3 2 5 5 6 8 3 5 2 12 10 10 11 11 12 6 4 7 16 13 11 15 14 10 15 14 13 12 12 8 7 7 5 7 13 16 19 18 18 18 17 17 17 17 17 17 16 17 17 16 17 17 17 17 17 16 16 16 16 16 15 15 15 15 15 14 14 13 13 13 12 12 12 12 11 10 10 10 10 11 12 11 11
9 6 6 3 0 1 0 0 1 1 2 2 5 0 2 3 3 7 6 4 5 1 5 10 9 4 16 14 12 18 10 7 6 18 12 12 8 14 16 14 13 11 10 8 7 7 6 9 12 16 18 19 19 18 18 18 17 17 16 16 16 16 16 16 16 16 16 16 16 16 15 15 15 15 15 15 15 15 14 14 13 13 13 12 12 12 12 11 11 11 10 9 10 11 11 10 10
5 4 4 2 1 1 0 1 2 1 2 1 1 5 6 2 7 5 2 3 13 8 11 10 9 9 13 13 5 5 7 11 10 8 11 10 14 16 16 15 13 12 11 9 8 7 8 14 13 17 18 19 18 18 18 17 16 16 16 16 16 16 16 16 16 16 16 16 16 16 16 15 15 15 15 15 15 15 14 14 13 13 13 12 12 12 11 11 10 10 10 9 10 11 11 10 10
4 3 2 3 1 1 1 2 2 3 3 1 1 3 5 3 4 8 8 7 5 6 10 10 9 8 7 8 5 9 13 9 10 10 13 14 19 19 16 14 14 12 11 10 9 7 8 14 14 17 18 19 18 18 18 17 16 16 16 16 16 16 16 16 16 16 15 15 15 15 15 15 14 14 14 14 14 13 13 14 13 12 12 12 12 11 9 10 10 10 9 10 11 11 10 9 9
4 3 1 2 1 0 2 3 5 3 1 4 1 2 8 8 9 11 12 12 1 13 15 15 17 16 12 8 12 8 7 13 10 11 11 18 19 18 17 14 13 13 13 9 9 9 10 11 15 19 19 19 18 18 18 17 16 16 16 16 16 16 16 16 16 16 15 15 15 15 15 15 14 14 14 13 13 13 13 13 13 13 13 12 12 11 9 10 10 10 9 9 10 10 10 8 8
3 3 1 1 1 2 2 4 5 1 0 3 1 2 2 7 6 6 12 10 11 8 12 11 9 14 15 8 9 12 14 7 14 16 19 18 18 18 16 14 14 14 12 10 9 9 13 12 17 19 19 19 18 18 18 17 16 16 16 16 16 16 16 16 16 15 15 15 15 15 15 14 14 14 14 14 14 13 13 13 13 12 13 12 12 12 12 11 11 10 10 10 10 10 10 9 8
3 1 0 1 1 0 2 4 5 3 5 6 6 2 6 8 4 4 9 9 9 12 15 17 13 16 8 12 9 10 12 16 16 21 20 20 19 18 13 15 14 13 13 11 10 9 10 15 18 19 19 18 18 18 17 17 16 16 16 16 16 15 16 16 15 15 15 15 15 15 14 14 14 14 14 14 13 13 13 13 13 13 12 12 12 12 12 12 11 10 10 9 9 10 9 9 8
3 1 0 1 0 2 3 2 4 4 3 6 5 6 6 5 3 12 12 10 9 13 14 13 9 17 14 13 12 10 11 19 20 19 20 20 19 16 17 16 16 16 13 11 11 10 8 17 19 19 18 18 18 17 17 16 16 16 16 16 16 16 15 15 15 15 15 15 15 14 14 14 14 13 13 13 13 13 13 13 13 12 12 12 12 12 11 11 11 10 9 9 9 9 9 9 8
3 2 3 0 0 2 1 3 2 5 3 8 3 10 12 13 15 11 8 13 11 14 18 18 15 18 14 9 8 10 18 21 21 21 20 19 16 16 15 15 15 15 13 14 12 10 10 11 19 19 19 18 18 17 17 16 17 16 16 16 16 15 15 14 14 14 15 15 15 14 14 13 13 13 13 13 13 12 12 12 12 13 13 12 12 12 11 11 11 10 9 8 8 8 8 8 8
3 3 2 1 1 1 3 3 5 5 4 8 6 6 8 14 10 10 13 13 14 16 14 9 7 16 13 11 9 14 19 19 18 18 19 17 15 18 15 13 14 14 16 15 13 10 9 10 11 17 19 18 18 17 16 16 16 16 15 16 15 15 15 14 14 14 14 15 14 14 13 13 13 13 13 13 12 12 12 12 12 12 13 12 12 11 11 10 10 10 9 8 7 7 7 7 7
3 3 1 0 2 1 4 4 5 4 4 2 6 9 10 6 3 12 13 15 15 16 12 11 18 12 12 10 9 16 19 18 18 19 19 15 15 15 14 14 14 16 15 14 13 11 11 10 10 10 13 19 17 17 16 16 16 16 15 15 15 15 15 14 13 13 13 14 14 13 13 12 13 12 12 12 12 12 11 12 12 12 12 12 11 10 10 9 9 9 8 7 7 7 6 6 6
4 5 4 3 1 2 4 3 4 0 2 5 5 10 8 6 4 10 13 13 12 11 15 17 13 14 15 11 11 12 15 18 19 18 15 16 14 14 15 14 16 15 15 15 13 12 11 10 10 9 11 10 9 13 15 16 15 16 15 15 15 15 14 14 13 13 13 13 13 13 12 11 12 12 12 11 12 11 10 11 11 11 11 11 11 10 9 9 9 8 8 7 6 6 6 5 5
7 5 3 2 2 2 2 2 1 2 2 11 11 13 10 5 10 11 13 15 11 15 16 13 15 12 9 17 11 11 17 20 20 18 15 15 16 14 15 14 15 14 14 15 13 13 11 11 10 9 8 8 8 6 6 11 16 15 15 15 15 14 14 13 13 12 12 12 12 12 11 11 11 11 11 11 11 11 10 9 10 10 10 10 10 9 9 8 8 7 7 6 5 5 5 4 3
5 4 2 1 2 1 3 4 2 2 3 3 7 17 5 4 7 11 11 11 12 11 13 8 11 3 16 10 17 17 23 21 20 17 17 17 15 14 14 14 14 14 13 14 13 12 12 11 9 9 8 8 7 7 7 7 13 15 15 15 14 14 13 13 13 12 11 11 11 11 11 8 8 7 11 8 10 10 9 7 9 9 9 9 10 9 9 8 7 7 6 5 5 4 4 4 2
5 4 2 2 5 2 3 4 6 1 3 2 4 8 10 7 6 6 9 13 17 14 11 14 7 16 18 14 17 19 23 20 17 20 17 13 12 13 12 10 11 11 10 12 11 11 12 11 11 9 9 9 9 8 6 7 9 15 12 14 14 13 12 12 12 12 10 10 8 9 9 5 4 3 5 3 8 5 8 9 9 8 8 8 8 8 8 7 6 5 5 4 4 3 3 3 1
2 3 2 5 6 6 3 3 3 2 4 4 2 8 10 8 11 11 12 13 13 14 12 11 16 13 16 18 21 19 21 20 19 20 16 13 11 12 13 12 12 11 11 11 11 12 11 11 11 10 9 10 9 7 6 6 7 10 6 6 6 8 9 10 7 4 6 4 8 6 3 3 3 3 3 6 3 4 4 7 8 7 7 7 7 7 6 6 5 3 4 2 1 1 2 1 1
6 3 4 7 4 6 1 1 7 2 2 7 6 6 10 10 15 11 11 14 13 12 13 13 16 17 19 22 22 20 19 18 19 18 18 16 13 14 12 11 12 12 11 10 10 12 11 11 11 11 11 10 11 8 7 6 7 5 6 6 6 8 7 6 4 5 4 4 4 4 2 3 4 3 2 3 3 7 4 6 6 6 6 6 6 5 5 5 4 4 3 2 2 4 3 2 1
9 4 5 8 7 4 3 3 4 4 6 6 9 3 10 18 12 8 12 12 13 13 12 13 13 21 22 24 24 22 20 18 17 20 19 17 14 14 13 14 12 12 12 11 11 10 12 11 12 11 12 10 10 8 7 7 6 6 6 5 5 5 5 5 4 4 5 5 4 4 3 3 4 4 6 7 7 4 4 6 6 6 5 5 5 3 3 2 2 2 3 3 2 3 2 2 0
7 8 7 7 10 5 2 5 1 4 3 4 7 5 12 9 14 9 15 12 8 10 14 17 20 23 22 22 23 23 21 20 17 18 19 17 15 12 12 12 12 12 11 10 10 10 13 12 11 11 11 11 10 8 8 8 7 6 6 5 6 5 5 5 5 5 4 6 4 4 4 3 4 3 2 3 5 5 3 2 2 2 2 2 4 0 1 1 3 3 1 3 2 3 2 4 2
6 11 10 10 4 4 2 3 3 3 8 7 7 8 3 11 13 9 15 9 8 10 15 15 21 23 22 21 21 21 22 21 21 19 18 18 19 15 13 11 12 11 11 11 11 12 13 12 12 11 10 11 10 9 9 8 8 7 7 6 6 5 6 5 5 5 5 6 4 4 3 3 3 2 2 2 5 5 4 3 3 3 3 2 2 2 2 3 2 1 1 2 1 2 3 4 4
9 7 12 12 8 4 4 6 6 8 6 7 3 8 4 5 4 3 15 13 7 12 15 18 21 22 21 21 20 19 25 23 22 22 19 19 17 17 15 13 13 13 11 11 10 11 12 11 12 12 10 11 10 9 8 8 7 7 7 6 7 6 6 6 5 5 5 4 5 4 5 4 4 3 3 3 5 4 4 4 4 3 3 4 2 2 2 3 3 1 2 1 2 2 2 3 5
10 7 12 12 10 9 7 7 8 7 9 10 11 9 2 14 3 6 13 13 10 13 17 20 20 20 20 19 20 20 19 24 24 22 21 19 19 20 16 15 13 11 11 13 12 12 11 13 12 13 10 11 9 9 10 8 7 7 8 7 8 7 7 6 6 6 5 5 4 5 4 5 4 3 3 5 4 3 3 4 4 4 3 3 2 2 1 2 1 1 1 3 2 2 2 3 5
12 12 10 7 13 9 11 9 9 9 12 11 9 7 8 14 16 12 5 15 14 16 19 20 20 21 21 20 19 18 16 15 18 20 19 16 17 18 16 12 13 12 12 14 13 13 13 12 14 13 11 12 10 10 10 8 8 7 8 7 7 8 7 6 7 6 6 5 5 5 4 5 5 4 2 4 4 3 3 3 4 4 3 4 3 2 1 1 1 1 1 2 3 2 3 2 2
12 11 11 10 10 12 11 9 11 11 5 8 6 6 8 6 9 9 8 13 15 19 20 21 20 20 20 20 20 18 15 15 16 17 16 17 18 16 16 15 13 14 12 13 13 12 13 12 15 14 11 11 10 9 9 9 8 6 8 7 7 7 7 6 7 6 6 6 5 5 5 5 5 5 3 4 5 4 4 3 4 4 4 4 3 2 1 2 1 1 2 3 2 0 2 4 1
8 15 11 11 10 9 13 12 12 6 6 8 12 9 13 8 5 8 9 16 17 19 21 20 20 20 18 18 16 15 18 17 18 16 13 13 17 17 15 14 14 13 13 14 12 12 12 13 15 13 11 10 9 8 9 9 9 6 8 7 6 6 6 7 6 6 6 6 6 6 6 5 5 5 4 5 5 5 4 4 4 3 4 3 3 2 2 1 0 1 3 1 1 2 1 1 1
14 12 13 15 12 11 11 13 8 4 6 9 10 8 6 5 11 9 14 19 18 21 19 19 18 17 16 18 17 13 15 15 15 17 16 17 13 14 16 13 15 13 14 14 11 12 12 14 14 13 12 11 9 9 9 9 9 6 7 7 7 6 7 6 6 6 6 6 6 6 6 5 5 5 6 6 6 5 4 4 4 3 4 5 4 4 2 3 2 3 2 2 4 3 2 3 1
13 12 12 11 12 12 13 15 15 10 7 9 10 7 8 12 10 14 22 22 20 20 20 20 19 15 14 16 16 12 15 15 13 16 13 16 13 13 17 14 15 14 10 14 12 13 14 14 13 13 12 10 10 9 10 8 8 6 7 7 7 6 7 7 6 6 6 6 5 7 6 7 6 6 6 7 6 5 5 4 4 4 5 5 5 4 3 0 1 2 1 2 3 4 1 3 3
12 12 8 8 10 10 10 11 13 14 9 13 12 8 8 9 11 6 19 21 21 18 17 18 18 16 15 14 15 12 14 15 13 16 12 13 13 15 17 15 16 14 12 10 13 13 12 11 10 11 12 11 11 8 9 9 7 6 6 6 6 6 6 7 7 6 6 6 6 5 6 6 5 5 6 5 6 6 5 5 4 4 4 4 5 4 3 2 3 3 3 2 2 3 1 2 3
10 11 8 7 5 6 8 7 8 14 13 11 8 6 5 9 14 16 16 25 22 17 16 17 17 17 15 16 14 13 15 15 16 17 14 14 13 14 17 16 17 15 12 12 16 13 13 13 11 11 13 11 12 8 10 9 7 6 7 6 6 6 6 6 6 6 6 6 6 5 5 5 6 5 5 6 6 5 5 5 4 4 4 4 5 5 5 4 4 3 3 4 3 2 2 2 4
5 3 8 6 7 2 11 16 13 13 6 13 10 7 5 7 12 15 20 22 23 19 17 17 15 15 16 15 15 13 13 13 15 17 16 16 14 15 16 18 17 16 17 13 14 14 14 12 13 13 14 13 13 8 10 8 8 6 7 6 5 5 6 6 5 7 6 6 6 6 5 5 5 5 5 5 6 5 5 5 5 5 5 4 4 4 3 3 1 2 2 1 0 1 4 5 4
6 8 3 7 7 6 8 8 15 16 10 10 15 5 5 8 8 15 17 20 22 19 17 17 16 18 16 15 15 13 13 14 12 14 17 16 14 11 15 17 17 16 17 15 16 14 15 13 15 15 16 13 13 9 10 7 8 7 8 6 7 6 6 6 5 7 7 7 6 6 6 5 5 5 5 5 5 5 5 5 5 4 4 5 3 3 3 2 2 1 1 2 2 2 1 3 2
7 7 8 5 8 9 9 8 12 16 15 9 16 9 6 8 8 16 20 20 25 20 20 16 15 12 15 16 15 15 13 15 15 13 17 16 14 13 12 14 15 16 17 16 17 14 15 13 13 13 15 13 12 8 11 8 8 7 7 7 7 7 5 6 6 6 8 7 7 7 7 6 5 4 5 5 5 5 5 5 4 4 4 4 3 3 3 2 1 2 1 1 1 0 2 2 5
7 6 7 7 7 10 11 11 10 16 19 16 14 13 10 14 5 14 17 22 20 19 18 16 18 13 13 15 15 16 14 15 16 14 16 15 17 14 12 13 13 15 13 15 17 13 12 12 11 12 14 13 12 8 10 8 8 6 7 6 8 7 5 6 6 5 7 8 8 8 8 7 6 5 5 5 5 5 5 5 5 4 4 4 3 3 2 2 2 1 0 1 1 1 3 2 3
13 11 9 9 9 10 11 14 14 16 19 16 12 13 12 13 7 5 14 20 19 18 17 14 16 17 14 14 15 15 14 16 14 14 15 15 16 16 14 12 13 13 14 13 17 15 13 13 12 11 13 13 11 7 8 8 7 7 7 6 7 7 7 5 6 5 6 8 9 9 8 7 6 6 5 5 5 4 5 5 5 4 4 4 4 3 2 2 3 2 1 1 0 2 2 2 1
14 15 11 12 13 10 12 16 11 12 16 16 12 13 14 15 9 13 14 16 15 15 17 14 14 15 16 14 16 16 15 16 14 16 14 16 18 17 15 13 12 14 14 13 15 15 13 15 14 13 14 13 12 9 9 9 9 7 5 8 7 8 8 6 5 6 6 7 9 10 9 7 7 6 5 5 5 4 5 5 5 5 4 4 4 3 4 3 3 3 3 2 1 1 2 1 1
16 13 12 8 13 10 12 13 15 10 12 15 13 13 13 14 11 15 20 24 18 17 16 16 16 15 14 17 16 17 14 12 15 14 14 16 16 16 15 14 13 17 15 14 15 15 13 14 13 12 12 13 13 11 10 10 9 8 9 8 5 6 7 7 5 6 6 6 10 9 8 8 8 7 6 5 5 5 5 6 6 6 5 4 4 3 4 3 3 3 2 1 1 2 2 1 3
15 13 11 10 7 9 11 16 15 7 12 9 15 12 12 13 10 15 19 17 18 18 20 18 15 16 15 15 16 15 13 14 15 16 15 15 19 18 15 15 15 17 17 16 15 14 13 12 11 11 12 13 13 10 10 10 7 7 7 5 7 5 4 4 5 4 5 7 9 9 9 9 8 7 7 6 6 5 5 6 6 6 6 5 4 4 4 4 4 4 3 4 2 1 2 1 4
11 11 11 10 10 8 6 13 12 9 7 8 14 13 9 11 9 12 14 16 16 17 21 18 16 15 15 17 17 16 16 15 17 16 16 14 18 17 16 16 15 14 16 15 16 16 12 11 12 12 12 12 12 11 10 9 9 7 5 4 5 6 5 4 4 4 3 6 10 10 8 9 9 8 7 7 6 6 6 6 6 6 6 6 6 6 5 5 4 4 4 5 3 1 2 2 3
14 13 11 10 13 13 12 5 13 9 10 8 13 10 5 6 8 9 15 18 18 18 20 19 16 16 16 16 17 18 19 17 17 17 17 14 16 18 18 16 15 16 16 16 17 16 12 14 14 13 13 13 12 12 12 9 8 8 6 4 4 5 5 5 4 5 6 4 8 9 9 9 9 8 8 8 7 7 6 6 6 6 6 6 6 6 6 6 5 4 4 4 4 4 2 2 2
12 16 15 12 13 15 15 14 10 7 5 12 13 6 6 8 11 10 13 12 18 18 21 18 19 17 16 18 19 18 18 17 19 19 18 17 13 15 15 16 16 16 17 17 17 17 15 13 14 13 11 12 13 14 13 10 10 11 10 9 9 6 9 9 10 11 9 7 9 8 9 9 9 8 8 8 7 6 7 6 6 6 6 6 6 6 5 4 4 4 4 5 5 4 4 3 2
11 12 16 17 15 13 15 15 8 4 6 10 13 10 4 5 12 11 11 16 19 17 22 21 19 19 18 17 17 18 18 16 16 16 16 17 14 15 16 17 17 17 16 16 15 16 16 14 15 14 13 11 12 13 14 11 10 10 12 12 11 10 11 9 9 8 8 6 7 9 9 9 9 9 8 8 7 7 7 6 6 6 7 6 5 5 5 5 5 5 4 4 5 4 3 3 5
10 8 14 17 17 17 17 15 10 4 3 6 16 9 6 5 11 13 13 13 17 18 22 21 20 20 20 18 18 18 18 18 17 17 17 18 16 17 18 18 17 18 17 16 16 15 16 15 15 15 12 13 12 13 14 13 12 11 12 11 10 10 8 9 9 8 7 7 7 9 8 8 9 9 9 8 8 8 7 7 6 6 7 6 6 6 6 5 5 4 3 5 5 4 5 6 4
7 9 13 17 17 15 16 13 9 5 4 3 10 12 4 4 5 12 16 13 13 14 25 20 20 21 21 21 21 20 20 20 19 18 19 19 17 16 18 18 16 15 16 17 16 16 16 15 16 15 14 13 13 15 15 14 12 12 12 11 10 9 7 7 8 7 8 8 9 6 8 9 9 9 8 9 8 8 8 8 7 7 7 7 6 6 5 5 5 6 5 5 5 4 4 4 4
10 11 11 10 14 15 14 10 9 6 4 4 6 13 7 5 6 9 9 13 15 13 26 23 22 22 21 21 21 22 20 18 19 21 21 20 19 17 17 17 15 15 15 15 15 15 15 14 15 17 15 13 13 16 15 15 13 11 11 12 12 10 7 6 8 9 8 7 10 8 8 8 8 8 8 8 9 9 8 8 7 8 8 8 7 7 6 6 5 6 6 5 4 5 3 4 5
7 13 13 11 9 11 10 8 5 5 9 7 5 5 7 5 10 10 9 12 12 9 18 18 20 22 22 22 22 21 19 19 18 19 19 19 19 18 16 16 17 15 13 15 15 15 15 15 15 17 16 13 14 16 16 16 14 12 12 13 13 12 10 8 9 9 9 7 9 9 8 9 9 9 9 7 9 9 9 9 8 7 7 8 8 7 7 7 7 7 6 5 5 6 4 3 3
14 8 11 4 6 3 5 7 6 7 7 5 5 8 6 7 4 11 12 11 18 13 17 24 20 20 21 18 19 20 19 18 19 18 18 18 15 15 15 16 16 16 14 16 16 15 15 15 15 17 16 15 13 15 16 16 15 14 12 13 13 12 11 10 10 11 11 11 9 10 8 8 8 8 8 8 7 9 8 9 8 8 7 7 8 8 7 7 7 6 6 6 6 6 5 4 4
14 8 8 9 2 4 4 4 10 10 7 4 5 6 7 10 2 3 15 9 11 15 13 24 27 24 23 21 22 19 19 19 18 18 17 17 17 17 18 18 17 17 15 18 18 17 16 16 18 18 17 16 14 15 17 17 15 14 14 13 13 11 11 12 10 10 11 11 9 9 9 9 9 8 9 10 9 10 9 9 9 9 8 7 7 8 7 7 7 7 7 6 7 7 7 6 5
13 11 7 9 4 6 5 3 2 3 4 6 7 4 12 1 6 7 4 9 8 13 14 15 30 28 25 22 21 20 19 19 19 18 18 18 18 18 19 19 19 18 17 17 19 18 16 17 19 20 19 18 16 15 17 17 17 15 14 14 13 12 12 12 11 11 11 10 10 9 10 9 10 11 11 11 10 10 9 9 9 9 8 8 7 8 7 8 7 7 8 7 7 7 7 7 6
11 10 9 10 7 4 8 5 9 5 2 7 9 6 4 7 5 4 10 9 8 6 17 10 17 27 26 24 22 22 21 20 18 17 18 19 19 19 18 17 18 18 18 17 17 18 17 17 19 20 19 19 18 17 16 18 16 16 14 14 13 11 11 11 11 10 10 11 10 10 8 8 9 10 11 9 9 9 9 9 9 9 8 9 8 7 7 7 7 7 7 8 7 7 8 8 6
11 10 5 7 13 2 4 3 2 5 2 2 9 10 3 6 3 5 2 7 12 9 6 13 11 23 21 21 19 20 20 20 18 18 18 20 19 19 17 16 17 17 19 16 17 17 17 18 19 21 21 20 19 18 17 17 17 15 15 15 15 14 11 11 9 9 9 11 11 11 10 9 8 8 8 9 10 10 9 9 9 10 8 8 8 8 8 7 7 7 7 7 8 6 8 9 7
10 10 15 10 5 6 2 1 3 1 1 6 2 4 9 7 10 4 12 10 14 16 11 10 9 25 22 23 20 21 20 20 19 19 18 20 18 18 18 18 17 18 17 18 18 18 19 18 19 20 19 18 19 19 18 17 17 16 16 16 15 14 14 13 12 12 12 10 11 10 10 10 8 7 7 9 10 9 9 9 10 10 10 8 8 8 8 8 7 7 7 7 8 7 8 9 7
8 14 10 4 3 4 4 3 4 6 6 6 8 9 5 9 8 9 7 13 14 16 16 13 10 23 21 25 23 23 23 22 22 21 20 21 20 21 19 18 20 21 22 21 19 15 14 16 18 19 19 20 19 18 18 17 18 18 16 16 16 16 15 15 14 13 12 10 9 9 9 9 9 9 9 7 9 10 10 10 10 10 10 9 9 9 9 9 8 7 7 7 8 7 8 7 7
10 11 11 11 9 13 5 1 5 7 7 3 9 14 9 13 10 8 17 13 14 14 16 17 8 21 22 22 22 21 19 18 17 18 17 18 18 19 20 20 21 22 20 19 16 15 14 14 16 19 21 21 21 18 17 14 15 14 14 16 17 16 14 14 13 12 11 11 11 10 11 11 10 8 9 9 9 10 10 10 10 10 10 11 10 9 9 9 9 8 8 7 7 7 8 8 8
14 8 14 10 4 6 6 8 0 2 3 6 5 10 7 9 10 15 17 18 15 12 13 18 12 18 16 21 21 19 18 17 18 17 18 18 19 21 21 20 20 19 18 17 19 17 18 18 18 18 18 17 16 16 15 15 15 14 14 15 16 15 15 15 14 14 13 13 12 11 11 10 12 10 9 11 11 11 11 11 10 11 11 11 11 10 10 9 9 9 9 9 8 9 8 9 9
15 10 8 11 6 4 3 4 7 3 2 4 4 5 4 6 9 17 17 17 14 15 9 15 14 19 19 21 21 19 18 17 17 17 17 18 18 19 19 19 19 19 17 17 18 20 19 17 18 19 20 20 19 19 17 16 14 15 15 16 16 15 16 14 14 14 14 13 12 12 11 11 10 11 10 10 12 12 12 12 11 11 12 11 11 11 10 10 9 9 9 9 9 10 10 8 8
13 11 8 12 13 7 13 5 6 8 3 2 3 5 5 7 3 10 18 16 14 15 11 11 13 20 22 23 23 22 20 19 19 19 18 17 17 19 19 17 16 17 19 21 19 17 17 19 19 19 19 19 20 19 18 17 15 15 17 17 17 15 15 14 15 15 15 13 12 12 12 11 11 12 12 12 11 11 11 13 12 12 12 12 12 12 11 10 11 11 10 8 9 10 11 10 9
Wind_Direction
164 168 168 176 97 324 8 215 258 165 231 251 278 86 249 167 134 73 239 29 318 182 187 200 183 198 128 105 111 85 36 144 128 149 179 134 133 148 168 141 143 139 136 138 142 135 134 148 142 132 129 126 124 122 119 119 119 117 114 112 110 109 106 106 107 107 107 108 106 105 105 104 101 99 98 98 100 101 100 100 98 98 98 98 99 98 100 99 97 98 96 97 93 91 89 88 88
170 170 169 148 140 132 224 194 248 249 206 289 248 106 213 124 82 104 198 194 238 303 136 134 127 104 109 118 122 73 30 16 75 102 75 119 130 151 154 143 145 142 139 139 139 134 139 142 141 134 131 129 126 123 123 122 120 118 117 115 112 110 109 109 109 109 109 108 107 107 106 104 104 102 101 102 101 101 102 103 103 101 100 98 97 99 100 101 103 104 103 101 99 96 93 89 89
170 169 155 133 161 209 353 221 278 70 324 286 273 168 21 153 194 159 209 223 266 93 149 119 103 92 71 66 39 70 84 58 94 89 104 132 135 157 145 145 143 138 136 140 140 138 139 144 150 135 133 131 129 127 127 124 123 122 119 117 114 112 112 111 111 111 110 108 107 107 105 105 103 103 102 100 101 101 101 100 101 101 101 101 101 100 101 103 105 108 110 107 103 98 94 92 92
167 154 140 174 204 111 253 346 286 7 326 271 307 329 151 173 150 175 210 77 303 54 61 77 74 64 96 76 98 87 92 76 76 123 127 151 150 144 145 145 136 134 138 144 139 139 139 148 152 135 135 134 132 131 128 126 125 125 121 118 117 115 114 113 112 111 110 109 108 107 105 104 104 104 103 100 100 101 103 105 105 107 106 104 103 102 102 105 110 110 110 109 103 101 100 101 103
109 94 144 157 162 351 56 247 276 81 289 5 268 13 1 15 146 154 219 219 220 143 103 106 106 104 95 108 120 99 113 101 90 92 120 130 139 141 147 140 137 139 141 138 137 136 140 149 151 136 136 136 134 132 129 129 129 126 122 120 119 118 116 114 113 112 110 110 108 107 107 106 105 104 102 102 101 103 105 107 106 105 106 107 108 106 103 104 105 110 111 109 106 103 103 105 107
73 113 2 93 159 95 288 308 266 238 225 154 337 56 346 306 172 150 177 202 138 120 109 105 94 93 63 50 69 107 140 125 130 112 130 139 141 145 143 137 140 139 136 139 138 133 144 153 148 138 137 137 135 132 132 132 130 126 124 123 121 120 118 117 114 112 111 109 107 105 104 103 102 100 100 99 99 99 101 100 98 102 105 105 102 98 102 105 106 102 102 104 102 103 103 102 106
167 132 87 15 333 54 253 287 292 270 268 149 265 186 203 198 202 172 172 139 268 92 93 100 106 108 89 104 103 110 91 116 126 131 136 139 139 143 139 142 139 135 139 138 130 135 148 154 148 140 139 138 135 134 134 133 131 128 127 126 124 122 121 118 115 114 112 110 109 107 106 103 101 99 99 99 100 101 100 100 104 103 103 105 102 106 107 103 97 99 102 100 99 100 103 107 106
189 126 214 138 279 141 265 275 270 134 299 114 86 323 221 235 205 208 134 139 139 123 123 113 98 90 87 99 93 105 122 106 114 124 130 138 141 138 143 140 137 139 139 130 131 136 150 156 148 143 140 138 137 137 136 136 133 131 130 129 126 124 122 119 117 116 114 112 110 108 105 103 100 99 98 97 96 96 95 95 96 100 100 100 97 98 101 100 102 100 99 100 98 99 102 105 106
150 88 263 307 318 297 288 279 300 311 284 94 13 307 249 253 340 242 129 117 115 105 108 111 123 95 110 100 97 117 99 114 123 130 137 139 141 147 143 140 140 137 132 131 131 138 147 154 145 143 140 140 140 139 139 137 134 133 133 131 128 126 122 121 119 117 115 112 108 105 104 102 102 100 100 100 101 101 101 101 100 101 102 103 105 101 97 93 93 96 96 97 99 100 101 102 107
51 229 228 225 127 269 269 279 328 337 357 64 132 258 270 261 151 250 134 131 125 123 106 104 100 102 116 102 110 111 123 123 130 134 138 141 145 143 140 142 141 134 132 129 135 140 148 151 144 143 141 142 142 141 140 138 136 136 135 133 131 127 124 123 121 119 115 111 108 105 105 104 102 100 101 100 99 100 101 100 100 101 105 103 99 97 95 95 94 94 93 93 95 96 102 106 109
156 200 163 119 220 278 229 274 279 321 8 82 267 208 219 230 188 183 128 114 111 100 108 106 95 111 111 98 86 111 124 133 140 141 143 145 142 138 140 141 139 134 128 131 135 140 146 148 145 144 143 143 143 144 141 139 138 138 138 136 132 128 127 124 123 120 116 112 108 107 107 107 105 103 102 101 102 102 103 102 102 104 105 105 102 100 100 99 98 96 96 96 96 100 101 106 111
182 181 136 215 217 194 281 306 308 253 228 133 221 245 223 233 157 145 129 127 118 121 124 132 118 120 98 111 117 127 134 140 140 139 143 144 144 142 139 136 136 132 132 134 136 137 144 148 144 145 144 143 145 144 142 141 141 141 140 137 133 130 128 127 125 122 118 114 111 109 110 110 110 107 106 107 106 105 104 106 105 105 106 106 105 102 103 103 102 99 97 98 101 105 108 109 110
223 119 193 281 217 196 282 290 276 300 358 270 139 209 246 155 234 140 134 130 138 132 117 109 127 120 118 121 130 135 142 144 141 143 145 148 142 141 138 136 134 135 133 134 136 141 146 147 145 145 146 146 147 146 144 144 143 144 143 139 133 132 132 130 127 125 123 119 116 115 113 113 113 113 109 105 105 107 107 109 110 109 109 109 111 110 110 110 108 108 108 108 108 110 113 115 113
219 159 132 267 318 228 253 236 256 95 154 282 140 280 231 182 200 152 133 133 138 123 122 133 128 114 106 123 143 148 145 147 146 144 147 143 141 138 137 136 136 136 137 138 140 144 149 148 145 144 145 145 146 147 148 147 146 147 145 140 135 136 136 134 132 129 125 122 121 120 119 117 114 110 108 109 108 107 107 110 112 113 116 118 118 119 116 116 113 111 109 108 109 110 108 108 111
197 154 154 193 257 275 215 230 57 3 181 190 141 190 205 239 175 158 146 138 128 126 139 134 126 117 174 151 155 161 150 150 146 150 143 133 138 137 137 138 137 135 138 142 144 147 150 147 147 143 144 144 144 141 146 151 150 149 146 142 139 139 138 138 134 130 128 126 126 126 124 120 116 114 113 112 111 109 109 110 114 118 122 124 123 124 122 119 116 109 106 108 112 104 98 95 95
179 149 153 233 253 198 262 221 162 14 273 47 135 191 139 218 168 159 154 135 122 144 143 127 174 127 157 161 149 155 149 151 153 147 133 138 139 136 141 141 138 140 144 146 148 152 152 150 146 147 147 147 145 143 147 152 154 152 149 145 142 142 142 140 137 134 135 133 132 130 126 119 119 120 121 117 119 120 120 121 121 127 127 127 127 128 129 121 118 116 116 119 111 109 111 110 111
207 175 216 192 282 230 243 211 113 210 268 353 232 123 133 226 249 144 129 129 141 152 154 157 152 133 153 149 152 148 143 146 148 138 137 141 144 144 145 145 140 145 148 151 153 155 153 148 150 149 151 149 146 146 150 151 157 154 151 148 145 145 145 144 141 142 140 136 133 136 130 130 128 130 116 123 122 120 126 132 131 131 133 131 131 130 129 125 116 121 124 122 120 111 115 112 78
148 239 179 258 251 252 260 346 54 12 348 352 283 171 131 183 179 131 132 144 140 152 140 160 122 144 142 135 142 141 138 150 151 142 141 145 151 149 149 151 150 153 153 155 158 156 152 153 155 153 154 154 150 148 154 157 158 155 150 149 145 148 150 149 143 144 141 134 141 142 148 141 132 146 150 139 119 128 135 135 134 134 133 134 135 132 129 127 117 111 109 89 93 112 53 57 359
203 196 183 243 240 248 221 197 79 60 300 266 270 322 169 173 145 151 146 146 153 148 140 145 145 136 131 135 142 145 145 151 147 134 142 150 154 151 150 148 153 151 154 158 160 162 152 154 159 157 158 160 149 153 155 160 154 149 154 148 150 152 160 151 153 155 141 151 139 150 151 117 116 137 144 147 138 144 138 138 134 136 140 139 131 135 135 133 137 119 122 105 34 43 41 352 36
207 205 204 237 238 227 190 178 162 137 241 283 306 185 261 152 136 161 140 138 169 157 146 136 132 135 141 144 152 147 147 151 152 143 148 154 154 152 151 151 153 158 156 161 160 158 154 161 162 160 164 158 151 156 155 156 158 156 155 155 153 160 161 160 175 166 158 166 152 149 136 124 129 143 170 144 146 129 147 143 140 136 141 134 133 122 165 140 137 119 129 132 81 68 62 318 347
166 215 228 228 220 240 204 164 110 150 235 265 282 296 227 186 140 157 138 146 149 130 147 150 147 143 144 148 150 148 148 153 154 154 154 154 156 155 154 156 158 157 159 156 159 158 160 163 160 163 167 154 154 156 155 161 163 158 162 158 162 164 166 172 188 171 160 163 142 132 140 141 135 162 205 152 120 132 138 140 122 113 118 135 153 128 156 218 100 47 28 128 145 128 134 256 254
222 207 223 235 169 210 190 127 158 184 199 222 262 273 51 34 120 139 137 139 162 154 150 148 142 142 146 151 153 153 151 154 157 157 161 157 156 158 161 156 157 155 160 162 163 157 163 166 161 165 164 157 160 157 159 164 164 162 169 164 164 167 175 187 180 159 155 152 147 149 145 144 133 158 192 135 122 137 157 155 145 114 93 103 116 72 46 81 83 95 286 173 161 165 176 208 230
234 203 233 226 180 201 184 185 193 190 201 248 250 241 93 149 24 164 128 150 187 146 144 139 142 146 149 150 155 165 158 160 160 160 159 162 158 160 165 159 161 159 164 163 158 161 164 165 161 166 162 159 159 156 157 166 170 168 167 167 166 173 179 185 166 158 158 155 150 145 138 151 154 176 170 147 132 140 154 133 120 115 115 114 93 95 74 71 97 82 329 203 187 197 213 207 233
235 229 215 209 177 196 171 191 188 204 214 223 233 271 223 103 75 259 158 170 171 161 146 143 142 143 147 152 165 171 169 162 163 162 162 162 162 162 162 159 161 156 161 162 162 165 170 167 162 169 162 160 160 158 161 168 175 168 173 171 173 179 176 179 164 161 158 155 158 142 147 155 156 177 146 150 149 143 153 128 138 142 138 123 131 102 84 94 103 139 271 273 236 238 232 228 229
221 232 246 220 182 196 178 180 192 207 221 211 225 246 236 168 164 199 113 147 170 150 140 142 145 148 152 158 165 171 173 164 160 158 162 161 159 163 161 156 162 161 159 160 163 166 171 167 161 171 164 163 163 159 163 171 180 173 174 176 176 181 178 172 165 155 154 160 164 144 154 152 155 168 156 153 148 147 146 139 143 147 143 133 122 124 79 56 75 57 278 249 200 203 243 271 324
225 223 217 242 195 205 174 180 199 207 234 167 184 220 243 149 122 109 173 137 142 135 137 144 151 152 158 163 164 169 168 163 158 165 167 160 158 161 158 163 162 166 161 155 161 165 168 165 164 173 167 167 166 161 164 169 183 182 172 180 178 174 175 158 154 156 158 160 170 157 160 156 158 167 170 157 144 157 158 147 147 148 148 140 122 124 157 169 172 216 252 277 133 278 16 326 45
210 218 231 228 226 218 164 196 202 197 220 218 206 170 234 162 169 157 159 144 128 135 142 150 155 157 162 163 164 166 167 164 168 166 175 162 157 165 162 161 160 165 159 163 162 164 169 162 166 171 168 169 166 160 163 169 181 187 172 174 176 169 153 146 149 157 157 166 173 160 164 167 160 177 165 157 147 159 159 152 164 162 151 148 145 161 186 171 36 246 253 293 83 87 85 308 266
254 253 213 218 226 225 173 195 215 185 234 237 237 221 170 196 203 165 144 141 145 142 151 153 156 159 163 164 163 169 171 164 172 170 173 170 162 165 163 166 162 164 165 167 163 166 166 164 165 169 169 171 169 164 161 166 183 187 172 163 177 168 146 148 156 160 164 171 171 165 165 171 171 170 159 151 156 156 170 170 163 136 148 149 163 165 162 180 200 237 239 145 84 70 15 341 314
263 258 252 224 219 226 183 185 207 203 218 221 234 209 228 186 223 156 143 149 149 151 151 158 157 160 162 172 160 169 178 165 170 175 176 173 165 160 164 169 161 168 169 168 163 169 164 165 166 168 168 169 174 169 165 170 181 180 168 163 169 163 147 154 163 167 163 171 168 172 160 163 155 162 156 158 160 163 172 167 158 165 171 149 147 150 156 119 260 256 253 109 106 81 356 319 315
263 265 267 247 216 221 219 207 201 191 204 213 208 224 191 173 212 168 149 144 149 152 157 160 160 160 167 170 163 170 177 167 174 177 174 173 166 164 165 170 164 169 167 166 166 171 162 169 166 168 171 171 178 172 161 172 178 168 166 156 160 158 153 156 167 163 158 164 160 164 154 149 146 162 153 157 152 160 162 163 164 169 163 148 149 153 166 191 208 210 203 111 136 148 143 259 266
220 231 242 244 215 224 190 234 225 210 191 200 189 243 213 186 204 195 164 143 149 158 158 162 161 161 167 164 167 175 179 176 175 176 172 175 168 170 168 163 168 164 169 168 170 170 167 168 168 171 173 176 181 173 168 169 171 163 160 156 158 152 170 161 159 164 151 160 157 163 158 152 157 160 160 152 155 154 154 155 149 152 163 154 170 170 180 198 185 159 130 132 212 146 204 232 239
253 263 223 225 236 196 217 199 212 229 183 190 184 232 224 220 200 149 154 152 153 155 162 160 166 165 165 160 165 176 182 174 173 174 173 175 178 174 166 168 169 166 171 169 164 169 175 170 163 170 170 177 182 171 169 166 165 158 158 160 159 151 164 180 159 162 154 157 156 160 160 162 157 164 166 154 145 152 159 155 154 158 153 144 137 136 155 123 90 86 115 125 146 211 183 221 217
229 223 227 230 194 241 279 211 192 207 228 195 198 206 195 250 183 156 174 157 144 155 162 165 172 164 165 156 168 176 174 177 175 175 175 171 180 175 165 173 171 168 166 165 167 172 174 173 169 169 171 173 180 170 168 163 162 157 160 163 162 155 163 182 182 159 156 159 157 155 166 162 165 162 161 159 144 152 156 152 153 161 142 132 142 123 102 140 129 114 136 181 199 246 198 213 234
248 194 230 233 213 186 233 255 214 190 209 215 187 213 207 236 195 178 172 144 152 160 164 164 163 169 160 161 167 174 173 173 181 181 176 169 173 179 175 172 170 164 166 164 169 173 172 170 173 165 169 172 176 170 169 163 166 159 159 158 159 167 174 180 192 161 159 160 157 160 164 163 168 168 161 164 155 154 154 150 153 145 127 124 129 124 142 130 92 95 140 307 273 259 273 223 167
232 209 198 234 247 222 204 212 212 194 193 220 181 195 212 235 220 185 167 144 156 152 160 159 165 172 166 161 169 173 173 176 182 182 178 165 170 176 181 170 165 164 167 166 169 173 170 167 170 162 164 168 177 165 166 157 156 155 154 150 161 170 184 183 195 167 165 158 165 165 161 166 171 169 164 166 169 152 147 147 148 141 127 128 132 146 149 140 142 87 106 294 307 247 229 213 150
235 239 197 208 227 227 231 219 218 197 181 208 187 186 205 237 212 134 136 136 144 147 162 166 169 173 176 166 171 173 174 178 180 179 180 169 168 174 180 173 165 166 165 164 169 170 173 169 174 163 164 166 171 159 161 156 154 161 160 157 156 176 185 188 190 188 172 161 163 163 165 164 168 169 168 165 178 148 150 159 148 145 140 148 146 147 112 161 152 140 225 207 325 320 311 325 82
235 242 236 199 213 239 234 246 237 197 172 193 190 181 190 221 196 142 130 129 147 156 164 175 173 171 173 170 173 171 173 177 176 179 183 170 168 173 176 169 161 164 165 162 168 169 171 169 168 168 164 163 170 166 166 162 163 164 162 176 167 176 180 191 180 192 177 164 158 163 166 163 166 167 169 165 173 176 155 164 154 149 147 153 153 154 163 172 154 153 184 150 159 314 304 355 94
243 252 252 228 202 219 232 242 240 207 180 183 191 180 191 211 182 157 145 150 163 171 178 178 179 179 174 170 169 171 171 167 170 177 188 170 170 169 166 167 158 164 171 168 171 169 169 169 167 165 164 164 172 173 168 166 169 173 172 175 162 166 170 186 195 193 189 153 157 161 162 163 164 165 171 168 171 182 154 164 161 158 159 167 161 154 164 176 166 161 185 147 221 206 258 153 139
235 241 257 271 249 224 218 234 246 214 185 172 179 186 196 209 186 168 161 167 165 171 178 183 182 171 174 171 165 162 162 169 173 179 185 178 171 170 166 168 169 167 170 171 170 166 168 170 167 164 167 166 169 170 166 169 163 163 166 169 162 160 160 177 184 191 191 148 160 161 161 163 164 168 169 170 175 187 171 162 168 162 164 160 154 168 180 184 175 186 184 167 214 256 210 146 140
234 231 238 247 258 262 218 229 239 213 194 159 177 186 202 201 188 177 166 152 162 156 163 173 180 179 167 171 166 165 168 169 177 181 187 181 173 171 167 170 171 163 167 168 170 172 170 170 168 164 169 166 166 169 170 165 162 158 153 160 157 157 168 173 186 206 204 145 163 163 164 163 166 169 170 174 175 184 180 166 163 162 166 165 167 171 186 185 192 202 186 181 162 211 182 200 159
230 239 233 236 249 249 251 217 226 238 194 175 167 187 191 191 198 178 169 157 167 169 166 177 183 180 170 167 166 166 171 174 176 182 187 186 174 174 171 170 168 167 169 171 172 173 177 172 171 164 168 168 169 168 168 161 154 156 157 164 163 138 152 170 181 213 215 161 162 166 170 166 166 167 172 175 177 181 181 171 167 165 163 170 167 170 181 190 186 185 176 166 181 171 200 167 204
217 232 241 239 239 249 259 261 226 221 209 187 164 172 219 200 206 191 170 169 171 175 177 177 174 176 170 167 170 171 175 176 175 179 183 189 178 170 164 167 171 168 172 173 172 174 174 171 172 165 167 168 171 170 169 167 168 165 167 171 183 174 173 180 189 194 202 184 174 168 165 168 168 169 172 177 179 177 182 176 173 165 165 168 171 176 183 175 175 188 200 173 195 193 163 149 158
213 211 224 243 251 254 255 263 270 205 210 197 164 160 229 203 201 199 183 183 182 176 179 182 178 177 177 173 170 172 174 175 180 179 180 186 184 172 169 173 173 171 172 168 170 173 174 171 175 170 170 172 170 171 170 173 172 170 175 179 184 188 179 190 187 186 188 188 156 169 169 171 171 170 177 178 181 183 179 182 177 172 168 173 173 168 181 187 184 197 190 173 207 186 140 163 177
227 194 203 227 244 253 261 269 266 248 242 192 188 162 153 204 207 200 194 187 190 180 185 181 180 179 179 178 172 172 173 174 175 178 182 186 185 177 176 176 175 175 167 165 168 170 173 171 174 174 170 173 174 172 174 177 175 174 177 180 185 193 184 184 180 178 175 181 169 169 169 176 175 176 177 181 182 184 178 183 180 172 169 176 171 181 191 183 179 200 183 193 209 185 157 165 185
224 206 208 205 223 240 255 264 270 267 262 263 197 162 168 198 244 198 189 203 201 174 178 182 181 180 179 178 177 174 175 174 174 176 183 186 186 181 179 180 177 167 166 170 168 170 173 171 173 175 171 173 175 174 176 179 178 178 178 180 184 194 181 175 173 169 168 173 186 171 177 176 177 181 180 181 184 184 182 179 178 170 172 173 179 186 192 183 184 180 194 192 202 209 156 167 142
213 235 226 227 203 219 237 247 261 290 314 250 222 178 183 207 212 204 201 200 205 180 179 181 181 181 180 178 177 178 179 175 175 178 181 185 186 182 182 177 172 172 171 171 169 166 171 171 173 176 175 174 174 176 176 178 179 179 181 184 184 187 179 168 168 174 173 172 183 188 179 178 180 180 186 184 185 186 182 181 180 175 176 176 182 187 184 190 183 180 188 192 179 195 185 147 164
209 213 244 237 220 199 216 243 254 300 262 247 215 241 198 216 204 195 182 204 198 168 176 184 182 182 182 180 176 176 174 174 177 179 180 183 185 182 171 173 178 174 167 168 172 170 170 172 174 179 180 175 174 177 176 180 181 182 185 186 186 185 181 171 170 177 181 175 183 188 180 183 181 184 185 188 187 186 182 182 185 183 181 179 183 184 189 190 185 182 185 179 174 177 190 182 164
218 196 218 245 268 207 185 212 224 238 257 265 245 243 228 232 260 211 205 179 185 185 170 183 184 182 181 179 178 174 173 174 175 177 180 180 176 175 172 176 178 180 170 169 173 171 172 174 176 180 182 180 177 178 180 182 182 186 188 187 188 186 181 182 178 180 183 189 185 190 180 177 186 185 186 188 187 187 179 185 186 185 189 180 184 187 188 188 181 178 180 179 177 173 177 181 173
205 208 189 201 220 191 220 157 210 225 225 268 266 265 277 246 213 229 204 200 203 194 187 175 181 180 180 182 176 175 174 174 174 175 174 174 176 174 175 177 177 181 179 174 174 174 173 176 177 180 185 183 181 180 183 183 184 187 188 189 190 186 185 187 185 183 185 188 188 184 182 181 180 182 189 191 191 187 181 179 184 188 191 193 183 186 188 186 177 175 181 180 173 173 181 187 180
192 209 173 183 204 186 214 218 214 253 244 238 267 270 256 325 279 201 187 209 202 197 202 168 178 178 180 176 175 173 173 174 175 174 173 174 176 178 178 176 179 182 182 177 176 176 176 179 179 181 186 184 184 184 186 185 187 188 188 189 189 187 189 187 189 187 187 189 189 187 187 184 181 186 188 192 189 184 185 184 184 187 190 192 189 186 181 184 177 176 181 180 180 176 175 185 191
197 202 194 191 194 182 188 174 197 188 191 209 232 281 211 186 214 178 200 244 248 200 200 169 168 180 176 174 172 170 169 173 174 173 174 175 177 179 178 176 179 182 184 180 179 179 177 179 181 184 184 186 186 188 187 188 189 189 189 190 190 190 190 190 192 190 187 188 190 190 188 184 183 187 187 187 182 185 184 185 185 185 186 189 189 189 185 179 181 177 181 184 179 173 176 183 192
196 195 195 184 210 131 187 183 125 166 190 200 198 221 88 192 160 202 208 220 257 241 198 207 159 163 169 173 168 168 172 173 173 175 175 175 178 178 178 175 177 180 184 185 183 180 178 180 182 185 186 185 187 189 191 190 190 190 189 190 192 191 192 193 193 192 191 189 188 189 191 187 186 178 181 177 187 185 181 185 186 189 186 185 188 187 186 182 179 178 181 180 184 177 173 183 191
176 180 207 206 140 219 98 130 173 262 217 249 216 250 265 295 309 251 196 206 218 249 228 211 173 161 154 167 166 170 172 175 175 174 176 176 175 177 177 176 178 180 183 189 190 185 181 178 180 184 186 187 189 192 192 191 191 190 192 192 191 192 194 194 194 195 192 188 187 189 189 192 182 175 173 180 183 187 186 183 188 189 189 187 188 188 186 185 179 179 178 181 184 182 176 185 185
146 202 194 139 208 219 153 189 168 198 198 221 197 229 212 199 241 236 249 213 214 213 235 221 170 169 161 165 167 169 171 176 174 173 173 174 175 179 179 178 180 182 184 188 189 187 181 179 180 181 184 187 191 193 195 195 193 192 192 193 193 194 195 197 196 196 194 188 186 187 187 187 190 184 181 178 179 186 188 187 186 190 190 190 190 189 187 184 181 184 184 185 186 175 181 182 188
204 186 132 189 169 219 173 207 204 184 212 229 208 212 227 191 213 185 227 227 217 214 204 223 175 174 158 167 169 171 169 166 165 169 172 174 175 178 181 182 184 186 185 183 181 181 184 182 181 183 187 190 190 192 196 198 197 195 194 193 194 196 196 197 197 196 194 195 192 187 188 190 188 181 181 183 184 187 188 192 187 189 190 192 191 190 188 185 184 186 189 188 187 178 180 188 191
225 157 175 186 211 193 165 202 203 167 211 198 260 205 229 195 201 194 205 215 211 213 200 201 184 168 157 168 169 168 165 166 164 169 173 176 178 179 181 181 182 182 181 182 183 184 185 184 181 185 188 188 189 194 195 199 199 199 201 199 199 196 194 195 195 193 196 197 196 192 190 185 190 187 184 185 189 190 190 191 190 189 190 191 192 193 189 189 187 192 191 194 192 188 184 190 192
208 212 179 173 216 131 183 159 216 169 197 185 212 228 227 249 203 195 196 204 198 202 190 193 183 164 161 162 169 170 167 165 166 171 176 179 179 180 182 182 182 179 178 180 185 188 187 182 184 183 184 186 189 193 194 200 198 202 202 202 201 199 198 197 196 197 198 198 196 194 194 193 185 192 188 186 190 192 191 191 189 191 190 191 192 193 191 190 192 195 195 196 194 194 196 194 189
207 206 194 176 178 180 184 235 192 229 230 218 194 234 248 252 260 195 193 195 191 192 182 178 177 165 171 169 166 168 170 169 171 173 177 179 179 181 186 183 177 176 178 183 187 187 183 186 186 184 185 187 190 192 194 196 198 201 203 203 203 201 201 198 198 197 198 196 196 195 196 192 191 194 192 194 189 191 191 192 191 191 191 190 192 193 192 191 194 196 198 196 197 197 200 200 192